User: anonymous   Login
Location: Unspecified
(0.0000°N, 0.0000°E)
Time: 23:11:08
(UTC+00:00)
Language:

NOAA-20 - Orbit

View from above orbital plane
View from above orbital plane
View from above satellite
View from above satellite

Ground track
Ground track

The orbit data is extracted from the following two-line orbital elements,

1 43013U 17073A   21207.79618955  .00000002  00000-0  21647-4 0  9997
2 43013  98.7211 145.8426 0000866  87.3969 272.7306 14.19549684191024
Epoch (UTC): 26 July 2021 19:06:30
Eccentricity: 0.0000866
inclination: 98.7211°
perigee height: 826 km
apogee height: 827 km
right ascension of ascending node: 145.8426°
argument of perigee: 87.3969°
revolutions per day: 14.19549684
mean anomaly at epoch: 272.7306°
orbit number at epoch: 19102

The dashed part of the orbit path shows where the satellite is in the earth's shadow,  

DLR